Location: L�beck
(53.8752°N, 10.6787°E)
Time: 06:55:10
(UTC+01:00)

ISS - Pass Details

Date: 13 November 2017
Orbit: 401 x 407 km, 51.6° (Epoch: 25 November)

Event Time Altitude Azimuth Distance (km) Brightness Sun altitude
Exits shadow 06:35:36 10° 255° (WSW) 1,440 -1.5 -9.6°
Maximum altitude 06:37:43 17° 214° (SSW) 1,113 -1.8 -9.3°
Drops below altitude 10° 06:39:54 10° 171° (S) 1,451 -0.7 -9.0°
Sets 06:42:27 0° 150° (SSE) 2,306 0.8 -8.6°
